| time (UTC) | temp F | wind direction | speed knots | gust knots | rain 1hr in | rain 24hr in | rain mn in | humidity % | barometer mb |
| 20260831104016 | 51 | 0.0 | 0.0 | 0.00 | 0.00 | 0.00 | 94 | 1015.4 | |
| 20260831103016 | 52 | 0.0 | 0.0 | 0.00 | 0.00 | 0.00 | 94 | 1015.4 | |
| 20260831102017 | 52 | 0.0 | 0.0 | 0.00 | 0.00 | 0.00 | 94 | 1015.3 | |
| 20260831101057 | 52 | 0.0 | 0.0 | 0.00 | 0.00 | 0.00 | 94 | 1015.6 | |
| 20260831100016 | 52 | 0.0 | 0.0 | 0.00 | 0.00 | 0.00 | 93 | 1015.7 | |
| 20260831095017 | 52 | 0.0 | 0.0 | 0.00 | 0.00 | 0.00 | 93 | 1015.8 | |
| 20260831094017 | 52 | 0.0 | 0.0 | 0.00 | 0.00 | 0.00 | 93 | 1016.0 | |
| 20260831093016 | 52 | 0.0 | 0.0 | 0.00 | 0.00 | 0.00 | 93 | 1016.0 | |
| 20260831092017 | 52 | 0.0 | 0.0 | 0.00 | 0.00 | 0.00 | 93 | 1016.1 | |
| 20260831091037 | 52 | 0.0 | 0.0 | 0.00 | 0.00 | 0.00 | 93 | 1016.2 | |
| 20260831090017 | 53 | 0.0 | 0.0 | 0.00 | 0.00 | 0.00 | 92 | 1016.3 | |
| 20260831085036 | 53 | 0.0 | 0.0 | 0.00 | 0.00 | 0.00 | 92 | 1016.3 | |
| 20260831084016 | 53 | 0.0 | 0.0 | 0.00 | 0.00 | 0.00 | 92 | 1016.3 | |
| 20260831083017 | 53 | 0.0 | 0.0 | 0.00 | 0.00 | 0.00 | 92 | 1016.4 | |
| 20260831082016 | 53 | 0.0 | 0.0 | 0.00 | 0.00 | 0.00 | 91 | 1016.4 | |
| 20260831081016 | 53 | 0.0 | 0.0 | 0.00 | 0.00 | 0.00 | 91 | 1016.5 | |
| 20260831080016 | 54 | 0.0 | 0.0 | 0.00 | 0.00 | 0.00 | 91 | 1016.6 | |
| 20260831075016 | 54 | 0.0 | 0.0 | 0.00 | 0.00 | 0.00 | 90 | 1016.7 | |
| 20260831074016 | 54 | 0.0 | 0.0 | 0.00 | 0.00 | 0.00 | 90 | 1016.6 | |
| 20260831073021 | 54 | 0.0 | 0.0 | 0.00 | 0.00 | 0.00 | 89 | 1016.7 | |
| 20260831072041 | 55 | 0.0 | 0.0 | 0.00 | 0.00 | 0.00 | 89 | 1016.8 | |
| 20260831071016 | 55 | 0.0 | 0.0 | 0.00 | 0.00 | 0.00 | 89 | 1016.8 | |
| 20260831070022 | 55 | 0.0 | 0.0 | 0.00 | 0.00 | 0.00 | 88 | 1017.0 | |
| 20260831065017 | 55 | 0.0 | 0.0 | 0.00 | 0.00 | 0.00 | 88 | 1017.1 | |
| 20260831064117 | 56 | 0.0 | 0.0 | 0.00 | 0.00 | 0.00 | 87 | 1017.2 | |
| 20260831063059 | 56 | 0.0 | 0.0 | 0.00 | 0.00 | 0.00 | 86 | 1017.3 | |
| 20260831062018 | 56 | 0.0 | 0.0 | 0.00 | 0.00 | 0.00 | 86 | 1017.3 | |
| 20260831061016 | 57 | 0.0 | 0.0 | 0.00 | 0.00 | 0.00 | 85 | 1017.4 | |
| 20260831060050 | 57 | 0.0 | 0.0 | 0.00 | 0.00 | 0.00 | 84 | 1017.5 | |
| 20260831055039 | 57 | 0.0 | 0.0 | 0.00 | 0.00 | 0.00 | 84 | 1017.5 | |
| 20260831054018 | 57 | 0.0 | 0.0 | 0.00 | 0.00 | 0.00 | 84 | 1017.7 | |
| 20260831053022 | 58 | 0.0 | 0.0 | 0.00 | 0.00 | 0.00 | 83 | 1017.8 | |
| 20260831052018 | 58 | 0.0 | 0.0 | 0.00 | 0.00 | 0.00 | 83 | 1017.8 | |
| 20260831051018 | 59 | 0.0 | 0.0 | 0.00 | 0.00 | 0.00 | 82 | 1017.8 | |
| 20260831050018 | 59 | 0.0 | 0.0 | 0.00 | 0.00 | 0.00 | 80 | 1017.9 | |
| 20260831045016 | 60 | 0.0 | 0.0 | 0.00 | 0.00 | 0.00 | 78 | 1017.9 | |
| 20260831044017 | 60 | 0.0 | 0.0 | 0.00 | 0.00 | 0.00 | 77 | 1017.9 | |
| 20260831043016 | 61 | 0.0 | 0.0 | 0.00 | 0.00 | 0.00 | 77 | 1017.9 | |
| 20260831042018 | 61 | 0.0 | 0.0 | 0.00 | 0.00 | 0.00 | 75 | 1017.9 | |
| 20260831041056 | 61 | 0.0 | 0.0 | 0.00 | 0.00 | 0.00 | 75 | 1017.9 | |
| 20260831040016 | 61 | 0.0 | 0.0 | 0.00 | 0.00 | 0.00 | 76 | 1017.9 | |
| 20260831035016 | 61 | 0.0 | 0.0 | 0.00 | 0.00 | 0.00 | 76 | 1017.8 | |
| 20260831033015 | 62 | 0.0 | 0.0 | 0.00 | 0.00 | 0.00 | 73 | 1017.7 | |
| 20260831032016 | 62 | 0.0 | 0.0 | 0.00 | 0.00 | 0.00 | 74 | 1017.8 | |
| 20260831031016 | 62 | 0.0 | 0.9 | 0.00 | 0.00 | 0.00 | 74 | 1017.7 | |
| 20260831030017 | 62 | 0.0 | 0.0 | 0.00 | 0.00 | 0.00 | 73 | 1017.6 | |
| 20260831025016 | 63 | 0.0 | 0.0 | 0.00 | 0.00 | 0.00 | 72 | 1017.8 | |
| 20260831024016 | 63 | 0.0 | 0.0 | 0.00 | 0.00 | 0.00 | 73 | 1017.7 | |
| 20260831023017 | 64 | 0.0 | 0.0 | 0.00 | 0.00 | 0.00 | 74 | 1017.8 | |
| 20260831022016 | 65 | 0.0 | 0.0 | 0.00 | 0.00 | 0.00 | 69 | 1017.9 | |
| 20260831021037 | 65 | 0.0 | 0.9 | 0.00 | 0.00 | 0.00 | 69 | 1018.0 | |
| 20260831020018 | 66 | 0.0 | 0.0 | 0.00 | 0.00 | 0.00 | 68 | 1018.1 | |
| 20260831015036 | 67 | 0.0 | 0.0 | 0.00 | 0.00 | 0.00 | 65 | 1018.0 | |
| 20260831014015 | 67 | 0.0 | 0.0 | 0.00 | 0.00 | 0.00 | 63 | 1018.1 | |
| 20260831013036 | 68 | 0.0 | 0.0 | 0.00 | 0.00 | 0.00 | 61 | 1018.1 | |
| 20260831012017 | 68 | 0.0 | 0.0 | 0.00 | 0.00 | 0.00 | 61 | 1018.2 | |
| 20260831011016 | 68 | 0.0 | 0.9 | 0.00 | 0.00 | 0.00 | 61 | 1018.3 | |
| 20260831010037 | 68 | 0.0 | 0.0 | 0.00 | 0.00 | 0.00 | 60 | 1018.5 | |
| 20260831005124 | 68 | 0.0 | 0.9 | 0.00 | 0.00 | 0.00 | 57 | 1018.5 | |
| 20260831004024 | 69 | 0.0 | 1.7 | 0.00 | 0.00 | 0.00 | 57 | 1018.5 | |
| 20260831003023 | 69 | 158 | 0.9 | 2.6 | 0.00 | 0.00 | 0.00 | 56 | 1018.5 |
| 20260831002018 | 69 | 0.0 | 1.7 | 0.00 | 0.00 | 0.00 | 58 | 1018.5 | |
| 20260831001037 | 69 | 0.0 | 0.0 | 0.00 | 0.00 | 0.00 | 58 | 1018.6 | |
| 20260831000017 | 69 | 0.0 | 1.7 | 0.00 | 0.00 | 0.00 | 55 | 1018.6 | |
| 20260830235018 | 69 | 0.0 | 2.6 | 0.00 | 0.00 | 0.00 | 55 | 1018.7 | |
| 20260830234019 | 69 | 158 | 0.9 | 2.6 | 0.00 | 0.00 | 0.00 | 54 | 1018.8 |
| 20260830233018 | 69 | 158 | 0.9 | 2.6 | 0.00 | 0.00 | 0.00 | 55 | 1018.7 |
| 20260830232019 | 69 | 0.0 | 0.9 | 0.00 | 0.00 | 0.00 | 55 | 1018.9 | |
| 20260830231051 | 69 | 0.0 | 1.7 | 0.00 | 0.00 | 0.00 | 54 | 1018.9 | |
| 20260830230018 | 69 | 0.0 | 0.0 | 0.00 | 0.00 | 0.00 | 55 | 1019.0 | |
| 20260830225017 | 69 | 158 | 0.9 | 2.6 | 0.00 | 0.00 | 0.00 | 53 | 1019.2 |
| 20260830224040 | 68 | 0.0 | 1.7 | 0.00 | 0.00 | 0.00 | 55 | 1019.2 | |
| 20260830223017 | 68 | 0.0 | 1.7 | 0.00 | 0.00 | 0.00 | 60 | 1019.4 | |
| 20260830222039 | 69 | 0.0 | 0.9 | 0.00 | 0.00 | 0.00 | 56 | 1019.3 | |
| 20260830221018 | 69 | 0.0 | 0.0 | 0.00 | 0.00 | 0.00 | 57 | 1019.3 | |
| 20260830220017 | 69 | 0.0 | 0.0 | 0.00 | 0.00 | 0.00 | 58 | 1019.4 | |
| 20260830215018 | 69 | 0.0 | 0.0 | 0.00 | 0.00 | 0.00 | 57 | 1019.5 | |
| 20260830214017 | 69 | 0.0 | 0.9 | 0.00 | 0.00 | 0.00 | 57 | 1019.7 | |
| 20260830213017 | 68 | 225 | 0.9 | 2.6 | 0.00 | 0.00 | 0.00 | 59 | 1019.8 |
| 20260830212017 | 68 | 158 | 0.9 | 2.6 | 0.00 | 0.00 | 0.00 | 58 | 1019.9 |
| 20260830211022 | 67 | 135 | 0.9 | 1.7 | 0.00 | 0.00 | 0.00 | 57 | 1019.9 |
| 20260830210019 | 67 | 0.0 | 1.7 | 0.00 | 0.00 | 0.00 | 61 | 1020.0 | |
| 20260830205023 | 66 | 0.0 | 2.6 | 0.00 | 0.00 | 0.00 | 62 | 1020.0 | |
| 20260830204018 | 65 | 0.0 | 0.0 | 0.00 | 0.00 | 0.00 | 66 | 1020.1 | |
| 20260830203037 | 65 | 0.0 | 0.0 | 0.00 | 0.00 | 0.00 | 67 | 1020.3 | |
| 20260830202017 | 65 | 0.0 | 0.9 | 0.00 | 0.00 | 0.00 | 65 | 1020.4 | |
| 20260830201057 | 65 | 0.0 | 0.9 | 0.00 | 0.00 | 0.00 | 65 | 1020.4 | |
| 20260830200018 | 66 | 0.0 | 1.7 | 0.00 | 0.00 | 0.00 | 64 | 1020.4 | |
| 20260830195017 | 64 | 0.0 | 0.9 | 0.00 | 0.00 | 0.00 | 68 | 1020.4 | |
| 20260830194039 | 63 | 0.0 | 1.7 | 0.00 | 0.00 | 0.00 | 70 | 1020.5 | |
| 20260830193017 | 63 | 0.0 | 0.0 | 0.00 | 0.00 | 0.00 | 71 | 1020.5 | |
| 20260830192019 | 63 | 0.0 | 0.9 | 0.00 | 0.00 | 0.00 | 73 | 1020.6 | |
| 20260830191017 | 63 | 0.0 | 1.7 | 0.00 | 0.02 | 0.00 | 73 | 1020.6 | |
| 20260830190017 | 63 | 0.0 | 1.7 | 0.00 | 0.02 | 0.00 | 70 | 1020.6 | |
| 20260830185017 | 63 | 0.0 | 0.0 | 0.00 | 0.02 | 0.00 | 70 | 1020.7 | |
| 20260830184017 | 63 | 0.0 | 0.0 | 0.00 | 0.02 | 0.00 | 70 | 1020.7 | |
| 20260830183017 | 63 | 0.0 | 2.6 | 0.00 | 0.02 | 0.00 | 69 | 1020.7 | |
| 20260830182018 | 63 | 0.0 | 0.9 | 0.00 | 0.02 | 0.00 | 69 | 1020.7 | |
| 20260830181018 | 64 | 0.0 | 0.9 | 0.00 | 0.03 | 0.00 | 68 | 1020.7 | |
| 20260830180028 | 63 | 0.0 | 0.9 | 0.00 | 0.07 | 0.00 | 69 | 1020.7 | |
| 20260830175045 | 62 | 0.0 | 1.7 | 0.00 | 0.09 | 0.00 | 72 | 1020.7 | |
| 20260830174141 | 61 | 0.0 | 0.9 | 0.00 | 0.09 | 0.00 | 78 | 1020.8 | |
| 20260830173017 | 60 | 0.0 | 0.0 | 0.00 | 0.09 | 0.00 | 78 | 1020.9 | |
| 20260830172037 | 60 | 0.0 | 0.0 | 0.00 | 0.10 | 0.00 | 79 | 1020.8 | |
| 20260830171017 | 60 | 0.0 | 0.9 | 0.00 | 0.11 | 0.00 | 75 | 1020.8 | |
| 20260830170016 | 60 | 0.0 | 0.9 | 0.00 | 0.11 | 0.00 | 77 | 1020.7 | |
| 20260830165019 | 59 | 0.0 | 1.7 | 0.00 | 0.11 | 0.00 | 79 | 1020.6 | |
| 20260830164016 | 59 | 0.0 | 0.9 | 0.00 | 0.11 | 0.00 | 82 | 1020.7 | |
| 20260830163016 | 59 | 0.0 | 1.7 | 0.00 | 0.11 | 0.00 | 81 | 1020.8 | |
| 20260830162016 | 59 | 0.0 | 0.9 | 0.00 | 0.11 | 0.00 | 84 | 1020.7 | |
| 20260830161039 | 59 | 0.0 | 0.9 | 0.00 | 0.11 | 0.00 | 85 | 1020.8 | |
| 20260830160018 | 58 | 0.0 | 0.9 | 0.00 | 0.11 | 0.00 | 86 | 1020.8 | |
| 20260830155018 | 57 | 0.0 | 0.9 | 0.00 | 0.11 | 0.00 | 88 | 1020.7 | |
| 20260830154017 | 57 | 0.0 | 0.9 | 0.00 | 0.11 | 0.00 | 91 | 1020.7 | |
| 20260830153018 | 56 | 0.0 | 0.0 | 0.00 | 0.11 | 0.00 | 92 | 1020.7 | |
| 20260830152017 | 56 | 0.0 | 0.0 | 0.00 | 0.12 | 0.00 | 94 | 1020.6 | |
| 20260830151017 | 56 | 0.0 | 0.0 | 0.00 | 0.12 | 0.00 | 94 | 1020.6 | |
| 20260830150017 | 56 | 0.0 | 0.0 | 0.00 | 0.12 | 0.00 | 95 | 1020.7 | |
| 20260830145016 | 55 | 0.0 | 0.0 | 0.00 | 0.12 | 0.00 | 95 | 1020.6 | |
| 20260830144022 | 55 | 0.0 | 0.0 | 0.00 | 0.12 | 0.00 | 95 | 1020.6 | |
| 20260830143016 | 55 | 0.0 | 0.0 | 0.00 | 0.13 | 0.00 | 95 | 1020.6 | |
| 20260830142016 | 55 | 0.0 | 0.0 | 0.00 | 0.14 | 0.00 | 94 | 1020.4 | |
| 20260830141016 | 55 | 0.0 | 0.0 | 0.00 | 0.15 | 0.00 | 94 | 1020.3 | |
| 20260830140037 | 55 | 0.0 | 0.0 | 0.00 | 0.16 | 0.00 | 94 | 1020.2 | |
| 20260830135016 | 55 | 0.0 | 0.0 | 0.00 | 0.16 | 0.00 | 94 | 1020.2 | |
| 20260830134016 | 55 | 0.0 | 0.0 | 0.00 | 0.19 | 0.00 | 94 | 1020.3 | |
| 20260830133017 | 55 | 0.0 | 0.0 | 0.00 | 0.21 | 0.00 | 94 | 1020.4 | |
| 20260830132016 | 55 | 0.0 | 0.0 | 0.00 | 0.22 | 0.00 | 94 | 1020.4 | |
| 20260830131016 | 55 | 0.0 | 0.0 | 0.00 | 0.22 | 0.00 | 93 | 1020.3 | |
| 20260830130017 | 55 | 0.0 | 0.0 | 0.00 | 0.22 | 0.00 | 93 | 1020.3 | |
| 20260830125017 | 55 | 0.0 | 0.0 | 0.00 | 0.22 | 0.00 | 93 | 1020.3 | |
| 20260830124017 | 55 | 0.0 | 0.0 | 0.00 | 0.22 | 0.00 | 93 | 1020.3 | |
| 20260830123016 | 55 | 0.0 | 0.0 | 0.00 | 0.22 | 0.00 | 93 | 1020.4 | |
| 20260830122057 | 55 | 0.0 | 0.0 | 0.00 | 0.22 | 0.00 | 93 | 1020.3 | |
| 20260830121016 | 55 | 0.0 | 0.0 | 0.00 | 0.22 | 0.00 | 93 | 1020.3 | |
| 20260830120036 | 55 | 0.0 | 0.0 | 0.00 | 0.22 | 0.00 | 93 | 1020.3 | |
| 20260830115016 | 55 | 0.0 | 0.0 | 0.00 | 0.25 | 0.00 | 93 | 1020.3 | |
| 20260830114017 | 55 | 0.0 | 0.0 | 0.00 | 0.33 | 0.00 | 93 | 1020.2 | |
| 20260830113016 | 55 | 0.0 | 0.0 | 0.00 | 0.43 | 0.00 | 93 | 1020.2 | |
| 20260830112016 | 55 | 0.0 | 0.0 | 0.00 | 0.52 | 0.00 | 93 | 1020.1 | |
| 20260830111017 | 55 | 0.0 | 0.0 | 0.00 | 0.55 | 0.00 | 93 | 1020.2 | |
| 20260830110016 | 55 | 0.0 | 0.0 | 0.00 | 0.56 | 0.00 | 93 | 1020.2 | |
| 20260830105016 | 55 | 0.0 | 0.0 | 0.00 | 0.56 | 0.00 | 93 | 1020.2 |